Location: York
(31.8935°S, 116.7682°E)
Time: 04:42:19
(UTC+08:00)

A-11 Canister half - Visible Passes

Search period start: 14 June 2021 00:00
Search period end: 24 June 2021 00:00
Orbit: 1527 x 1681 km, 47.3° (Epoch: 12 June)

Date Brightness Start Highest point End Pass type
(mag) Time Alt. Az. Time Alt. Az. Time Alt. Az.
14 Jun 9.0 18:55:25 10° SW 19:05:37 86° SE 19:13:40 17° NE visible
14 Jun 10.5 21:02:01 10° WSW 21:09:52 27° NW 21:12:06 25° NW visible
15 Jun 9.1 18:33:43 10° SW 18:43:55 83° SE 18:53:46 10° NE visible
15 Jun 10.4 20:40:09 10° WSW 20:48:16 29° NW 20:53:39 18° N visible
16 Jun 9.1 18:12:00 10° SW 18:22:13 79° SE 18:32:06 10° NE visible
16 Jun 10.4 20:18:17 10° WSW 20:26:39 31° NW 20:34:48 10° N visible
17 Jun 9.1 17:50:18 10° SW 18:00:32 76° SE 18:10:25 10° ENE visible
17 Jun 10.4 19:56:26 10° WSW 20:05:02 34° NW 20:13:24 10° N visible
18 Jun 9.2 17:28:36 10° SW 17:38:49 73° SE 17:48:43 10° ENE visible
18 Jun 10.4 19:34:37 10° WSW 19:43:25 36° NW 19:51:59 10° N visible
19 Jun 10.3 19:12:48 10° WSW 19:21:48 38° NW 19:30:32 10° NNE visible
20 Jun 10.3 18:51:00 10° WSW 19:00:10 41° NW 19:09:05 10° NNE visible
21 Jun 10.3 18:29:13 10° WSW 18:38:32 43° NW 18:47:36 10° NNE visible
22 Jun 10.2 18:07:26 10° WSW 18:16:54 46° NW 18:26:07 10° NNE visible
23 Jun 10.2 17:45:40 10° WSW 17:55:15 49° NW 18:04:36 10° NNE visible
